Orbital Elements at Epoch 2459200.5 (2020-Dec-17.0) TDB
Reference: JPL 18 (heliocentric ecliptic J2000)
Element | Value | Uncertainty (1-sigma) | Units |
e | .2143411867051664 | 4.3467e-08 | |
a | 2.708735499742719 | 1.3931e-08 | au |
q | 2.128141918257453 | 1.2037e-07 | au |
i | 7.729028220798184 | 4.6332e-06 | deg |
node | 183.0126278742914 | 3.2794e-05 | deg |
peri | 203.1402043193699 | 3.4451e-05 | deg |
M | 327.9909460823135 | 1.2216e-05 | deg |
tp | 2459345.283364080439 (2021-May-10.78336408) | 5.5853e-05 | TDB |
period | 1628.352128213263 4.46 | 1.2562e-05 3.439e-08 | d yr |
n | .2210824021184018 | 1.7056e-09 | deg/d |
Q | 3.289329081227985 | 1.6917e-08 | au |
|
| | Orbit Determination Parameters
Additional Information
|